Flag for Austria Weather past 2 weeks in Traun, Upper Austria, Austria

Now
66 °F

Sunny.


Feels Like: 66 °F
Forecast: 60 / 91 °F
Wind: 1 mph from North

Location: Linz / Hoersching-Flughafen

Current Time: Aug 29, 2015 at 8:37:19 AM

Latest Report: Aug 29, 2015 at 7:50 AM


Visibility: 10 mi

Pressure: 30.24 "Hg

Humidity: 78%

Dew point: 59 °F

Location of TraunLocation

Historic Weather in Traun — Graph

°F

Traun temperature yesterday

Maximum temperature yesterday: 90 °F (at 2:50 PM)
Minimum temperature yesterday: 57 °F (at 4:50 AM)
Average temperature yesterday: 75 °F

Past Weeks' High & Low Weather Summary

 TemperatureHumidityPressure
High95 °F (Aug 14, 4:20 PM)100% (Aug 20, 9:20 PM)30.27 "Hg (Aug 20, 9:20 PM)
Low45 °F (Aug 26, 6:20 AM)16% (Aug 26, 4:20 PM)29.68 "Hg (Aug 14, 6:20 PM)
Average68 °F65%29.99 "Hg
* Reported Aug 14 7:20 AM — Aug 29 7:20 AM, Traun, Weather by CustomWeather, © 2015

Note: Actual official high and low records may vary slightly from our data, if they occured in-between our weather recording intervals... More about our weather records

Advertising

Traun weather history for previous 24 hours

 ConditionsComfort  
Time TempWeatherWind HumidityBarometerVisibility
7:20 AM
Sat, Aug 29
64 °FSunny.1 mph83%30.21 "Hg10 mi
6:50 AM63 °FClear.2 mph83%30.21 "Hg10 mi
6:20 AM63 °FClear.2 mph83%30.21 "Hg10 mi
5:50 AM64 °FClear.1 mph83%30.21 "Hg10 mi
4:50 AM64 °FPassing clouds.3 mph83%30.18 "HgN/A
4:20 AM64 °FClear.7 mph83%30.18 "Hg10 mi
3:50 AM66 °FClear.3 mph73%30.18 "Hg10 mi
3:20 AM66 °FClear.2 mph73%30.15 "Hg10 mi
2:50 AM66 °FMild.5 mph73%30.15 "HgN/A
2:20 AM66 °FMild.3 mph73%30.15 "HgN/A
1:50 AM66 °FClear.2 mph73%30.15 "Hg10 mi
1:20 AM68 °FMild.2 mph69%30.15 "HgN/A
12:50 AM70 °FMild.2 mph64%30.15 "HgN/A
11:50 PM
Fri, Aug 28
72 °FClear.2 mph61%30.15 "Hg10 mi
10:50 PM73 °FClear.1 mph57%30.12 "Hg10 mi
10:20 PM75 °FClear.2 mph54%30.12 "Hg10 mi
9:50 PM73 °FClear.2 mph57%30.12 "Hg10 mi
9:20 PM77 °FClear.3 mph51%30.12 "Hg10 mi
8:50 PM81 °FSunny.2 mph45%30.09 "Hg10 mi
8:20 PM82 °FSunny.1 mph37%30.09 "Hg10 mi
7:50 PM86 °FScattered clouds.2 mph33%30.09 "HgN/A
7:20 PM88 °FPartly sunny.3 mph31%30.09 "HgN/A
6:50 PM90 °FScattered clouds.5 mph27%30.09 "HgN/A
6:20 PM90 °FScattered clouds.3 mph29%30.09 "HgN/A
5:50 PM90 °FPassing clouds.6 mph29%30.09 "HgN/A
5:20 PM90 °FPassing clouds.7 mph29%30.09 "HgN/A
4:50 PM88 °FScattered clouds.7 mph31%30.09 "HgN/A
4:20 PM88 °FScattered clouds.8 mph31%30.09 "HgN/A
3:50 PM90 °FScattered clouds.8 mph29%30.09 "HgN/A
3:20 PM90 °FScattered clouds.10 mph29%30.09 "HgN/A
2:50 PM90 °FScattered clouds.10 mph29%30.09 "HgN/A
2:20 PM88 °FScattered clouds.14 mph29%30.09 "HgN/A
1:50 PM88 °FScattered clouds.7 mph33%30.09 "HgN/A
1:20 PM86 °FScattered clouds.7 mph35%30.09 "HgN/A
12:50 PM84 °FScattered clouds.8 mph37%30.09 "HgN/A
12:20 PM84 °FPassing clouds.7 mph40%30.09 "HgN/A
11:50 AM82 °FPassing clouds.8 mph42%30.09 "HgN/A
11:20 AM81 °FPassing clouds.8 mph45%30.09 "HgN/A
10:50 AM79 °FPassing clouds.8 mph48%30.09 "HgN/A
10:20 AM77 °FPassing clouds.8 mph51%30.09 "HgN/A
9:50 AM72 °FPassing clouds.3 mph65%30.09 "HgN/A
9:20 AM70 °FSunny.3 mph64%30.09 "Hg10 mi
8:50 AM66 °FPassing clouds.5 mph73%30.07 "HgN/A
8:20 AM64 °FPassing clouds.3 mph78%30.07 "HgN/A
Weather by CustomWeather, © 2015

See weather overviewHow to use our weather pages